Location: ??
(35.5090°N, 139.6783°E)
Time: 19:02:38
(UTC+00:00)

SL-08 R/B - Pass Details

Date: 08 November 2025
Orbit: 942 x 1007 km, 82.9° (Epoch: 08 December)

Event Time Altitude Azimuth Distance (km) Brightness Sun altitude
Rises 08:18:52 0° 175° (S) 3,643 7.6 -8.4°
Reaches altitude 10° 08:21:24 10° 172° (S) 2,691 6.9 -8.9°
Maximum altitude 08:27:27 63° 93° (E) 1,059 4.5 -10.1°
Drops below altitude 10° 08:33:28 10° 13° (NNE) 2,673 6.5 -11.3°
Sets 08:35:58 0° 11° (N) 3,617 7.2 -11.8°
